Location: Maccacari
(45.1333°N, 11.1333°E)
Time: 18:19:56
(UTC+00:00)

Tiros 1 despin weight - Pass Details

Date: 29 January 2021
Orbit: 593 x 642 km, 48.2° (Epoch: 25 February)

Event Time Altitude Azimuth Distance (km) Brightness Sun altitude
Rises 16:36:23 0° 290° (WNW) 2,875 ? -3.7°
Reaches altitude 10° 16:38:43 10° 288° (WNW) 1,960 ? -4.0°
Maximum altitude 16:43:10 66° 206° (SSW) 658 ? -4.8°
Drops below altitude 10° 16:47:33 10° 125° (SE) 1,928 ? -5.5°
Sets 16:49:49 0° 122° (ESE) 2,823 ? -5.9°
